Flag for Germany Weather past 2 weeks in Ravensburg, Baden-Württemberg, Germany

Now
68 °F

Sunny.


Feels Like: 68 °F
Forecast: 46 / 65 °F
Wind: 6 mph from North

Location: Friedrichshafen Airport

Current Time: Sep 4, 2015 at 2:47:57 PM

Latest Report: Sep 4, 2015 at 2:20 PM


Visibility: 10 mi

Pressure: 30.01 "Hg

Humidity: 46%

Dew point: 46 °F

Location of RavensburgLocation

Historic Weather in Ravensburg — Graph

°F

Ravensburg temperature yesterday

Maximum temperature yesterday: 64 °F (at 2:20 PM)
Minimum temperature yesterday: 55 °F (at 6:20 AM)
Average temperature yesterday: 59 °F

Past Weeks' High & Low Weather Summary

 TemperatureHumidityPressure
High90 °F (Aug 30, 4:20 PM)94% (Aug 27, 4:50 AM)30.27 "Hg (Aug 27, 4:50 AM)
Low48 °F (Aug 26, 4:20 AM)27% (Aug 30, 3:50 PM)29.71 "Hg (Aug 24, 7:50 AM)
Average66 °F66%30.04 "Hg
* Reported Aug 20 1:20 PM — Sep 4 1:20 PM, Ravensburg, Weather by CustomWeather, © 2015

Note: Actual official high and low records may vary slightly from our data, if they occured in-between our weather recording intervals... More about our weather records

Advertising

Ravensburg weather history for previous 24 hours

 ConditionsComfort  
Time TempWeatherWind HumidityBarometerVisibility
1:20 PM
Fri, Sep 4
66 °FPassing clouds.8 mph37%30.04 "HgN/A
12:50 PM64 °FPassing clouds.6 mph52%30.04 "HgN/A
12:20 PM64 °FPassing clouds.3 mph56%30.04 "HgN/A
11:50 AM63 °FPassing clouds.3 mph59%30.04 "HgN/A
11:20 AM63 °FScattered clouds.2 mph64%30.04 "HgN/A
10:50 AM61 °FScattered clouds.1 mph68%30.04 "HgN/A
10:20 AM61 °FScattered clouds.3 mph68%30.04 "HgN/A
9:50 AM63 °FPartly sunny.No wind64%30.04 "HgN/A
9:20 AM59 °FPassing clouds.2 mph77%30.04 "HgN/A
8:50 AM55 °FSunny.3 mph82%30.04 "Hg10 mi
8:20 AM55 °FSunny.1 mph88%30.04 "Hg10 mi
7:50 AM54 °FPassing clouds.1 mph88%30.04 "HgN/A
7:20 AM54 °FPassing clouds.3 mph88%30.04 "HgN/A
6:50 AM54 °FPassing clouds.1 mph88%30.04 "HgN/A
6:20 AM55 °FSprinkles. Mostly cloudy.3 mph82%30.01 "HgN/A
5:50 AM55 °FRain. Overcast.6 mph82%30.04 "Hg4 mi
5:20 AM55 °FLight rain. Fog.2 mph82%30.04 "Hg3 mi
4:50 AM54 °FFog.2 mph88%30.01 "Hg2 mi
4:20 AM54 °FMostly cloudy.No wind88%30.01 "Hg4 mi
3:59 AM54 °FCool.1 mph88%30.04 "Hg4 mi
3:50 AM55 °FMostly cloudy.3 mph82%30.01 "Hg6 mi
3:20 AM54 °FMostly cloudy.2 mph88%30.04 "Hg5 mi
2:50 AM55 °FMostly cloudy.6 mph82%30.04 "HgN/A
2:20 AM55 °FMostly cloudy.3 mph82%30.04 "Hg6 mi
1:50 AM55 °FMostly cloudy.5 mph82%30.04 "HgN/A
1:20 AM54 °FMostly cloudy.5 mph88%30.04 "HgN/A
12:50 AM55 °FMostly cloudy.5 mph82%30.04 "HgN/A
12:20 AM55 °FOvercast.2 mph82%30.04 "Hg6 mi
11:20 PM
Thu, Sep 3
55 °FLight rain. Overcast.5 mph82%30.04 "HgN/A
11:00 PM57 °FSprinkles. Mostly cloudy.2 mph72%30.01 "HgN/A
10:50 PM57 °FMostly cloudy.5 mph72%30.01 "HgN/A
10:20 PM57 °FOvercast.8 mph77%30.01 "HgN/A
9:50 PM57 °FPartly cloudy.5 mph82%30.01 "HgN/A
9:20 PM59 °FPassing clouds.5 mph77%30.01 "HgN/A
8:50 PM59 °FSunny.6 mph82%29.98 "Hg10 mi
8:20 PM59 °FSunny.7 mph82%29.98 "Hg10 mi
7:50 PM59 °FSunny.6 mph82%29.98 "Hg10 mi
7:20 PM61 °FPartly sunny.6 mph77%29.98 "HgN/A
6:50 PM61 °FPassing clouds.5 mph77%29.98 "HgN/A
6:20 PM61 °FBroken clouds.6 mph77%29.98 "HgN/A
5:50 PM61 °FMostly cloudy.5 mph83%29.98 "Hg6 mi
5:20 PM61 °FBroken clouds.6 mph83%29.98 "Hg4 mi
4:50 PM61 °FMostly cloudy.5 mph83%29.98 "Hg5 mi
4:20 PM61 °FSprinkles. Broken clouds.2 mph77%29.98 "HgN/A
3:50 PM61 °FLight rain. Cloudy.5 mph77%29.98 "Hg5 mi
3:20 PM63 °FMostly cloudy.6 mph73%29.98 "HgN/A
2:50 PM63 °FMore clouds than sun.2 mph68%29.98 "HgN/A
2:20 PM64 °FCloudy.No wind64%29.98 "HgN/A
Weather by CustomWeather, © 2015

See weather overviewHow to use our weather pages